| time (UTC) | temp F | wind direction | speed knots | gust knots | rain 1hr in | rain 24hr in | rain mn in | humidity % | barometer mb |
| 20260906203031 | 76 | 216 | 0.0 | 0.0 | 0.00 | 0.00 | 0.00 | 63 | 1016.6 |
| 20260906201555 | 77 | 216 | 0.0 | 0.0 | 0.00 | 0.00 | 0.00 | 63 | 1016.6 |
| 20260906200030 | 77 | 216 | 0.0 | 0.0 | 0.00 | 0.00 | 0.00 | 63 | 1016.5 |
| 20260906194530 | 78 | 216 | 0.0 | 0.0 | 0.00 | 0.00 | 0.00 | 62 | 1016.5 |
| 20260906193034 | 78 | 216 | 0.0 | 0.0 | 0.00 | 0.00 | 0.00 | 61 | 1016.4 |
| 20260906191532 | 79 | 216 | 0.0 | 0.0 | 0.00 | 0.00 | 0.00 | 60 | 1016.4 |
| 20260906190031 | 79 | 216 | 0.0 | 0.0 | 0.00 | 0.00 | 0.00 | 59 | 1016.3 |
| 20260906184528 | 80 | 216 | 0.0 | 0.0 | 0.00 | 0.00 | 0.00 | 58 | 1016.2 |
| 20260906183027 | 81 | 216 | 0.0 | 0.0 | 0.00 | 0.00 | 0.00 | 55 | 1016.1 |
| 20260906181539 | 81 | 216 | 0.0 | 0.0 | 0.00 | 0.00 | 0.00 | 55 | 1015.9 |
| 20260906180026 | 82 | 216 | 0.0 | 0.0 | 0.00 | 0.00 | 0.00 | 54 | 1015.7 |
| 20260906174526 | 83 | 216 | 0.0 | 0.0 | 0.00 | 0.00 | 0.00 | 53 | 1015.6 |
| 20260906173026 | 83 | 216 | 0.0 | 0.0 | 0.00 | 0.00 | 0.00 | 52 | 1015.6 |
| 20260906171525 | 85 | 216 | 0.0 | 0.0 | 0.00 | 0.00 | 0.00 | 51 | 1015.4 |
| 20260906170025 | 86 | 220 | 0.0 | 2.6 | 0.00 | 0.00 | 0.00 | 50 | 1015.3 |
| 20260906164526 | 87 | 204 | 0.0 | 1.7 | 0.00 | 0.00 | 0.00 | 49 | 1015.3 |
| 20260906163040 | 89 | 167 | 0.0 | 0.0 | 0.00 | 0.00 | 0.00 | 46 | 1015.2 |
| 20260906161526 | 90 | 219 | 0.0 | 1.7 | 0.00 | 0.00 | 0.00 | 47 | 1015.2 |
| 20260906160022 | 90 | 119 | 0.0 | 0.0 | 0.00 | 0.00 | 0.00 | 38 | 1015.2 |
| 20260906154521 | 90 | 144 | 0.0 | 0.9 | 0.00 | 0.00 | 0.00 | 39 | 1015.2 |
| 20260906153020 | 89 | 76 | 0.0 | 1.7 | 0.00 | 0.00 | 0.00 | 39 | 1015.2 |
| 20260906151519 | 90 | 94 | 0.0 | 3.5 | 0.00 | 0.00 | 0.00 | 39 | 1015.3 |
| 20260906150025 | 90 | 90 | 0.0 | 1.7 | 0.00 | 0.00 | 0.00 | 39 | 1015.3 |
| 20260906144519 | 90 | 26 | 0.0 | 4.3 | 0.00 | 0.00 | 0.00 | 38 | 1015.4 |
| 20260906143017 | 90 | 77 | 0.0 | 0.9 | 0.00 | 0.00 | 0.00 | 38 | 1015.4 |
| 20260906141517 | 91 | 84 | 0.0 | 2.6 | 0.00 | 0.00 | 0.00 | 38 | 1015.4 |
| 20260906140019 | 90 | 61 | 0.0 | 2.6 | 0.00 | 0.00 | 0.00 | 39 | 1015.6 |
| 20260906134515 | 91 | 193 | 0.0 | 2.6 | 0.00 | 0.00 | 0.00 | 41 | 1015.5 |
| 20260906133015 | 90 | 200 | 0.0 | 3.5 | 0.00 | 0.00 | 0.00 | 42 | 1015.6 |
| 20260906131514 | 91 | 170 | 0.0 | 2.6 | 0.00 | 0.00 | 0.00 | 39 | 1015.7 |
| 20260906130016 | 91 | 207 | 0.0 | 3.5 | 0.00 | 0.00 | 0.00 | 40 | 1016.0 |
| 20260906124516 | 91 | 58 | 0.0 | 2.6 | 0.00 | 0.00 | 0.00 | 40 | 1016.0 |
| 20260906123030 | 90 | 76 | 0.0 | 4.3 | 0.00 | 0.00 | 0.00 | 41 | 1016.0 |
| 20260906121509 | 90 | 82 | 0.0 | 4.3 | 0.00 | 0.00 | 0.00 | 39 | 1016.1 |
| 20260906120009 | 90 | 158 | 0.0 | 5.2 | 0.00 | 0.00 | 0.00 | 41 | 1016.1 |
| 20260906114509 | 90 | 38 | 0.0 | 3.5 | 0.00 | 0.00 | 0.00 | 42 | 1016.1 |
| 20260906113011 | 90 | 105 | 0.0 | 5.2 | 0.00 | 0.00 | 0.00 | 40 | 1016.3 |
| 20260906111506 | 89 | 73 | 0.0 | 7.0 | 0.00 | 0.00 | 0.00 | 42 | 1016.3 |
| 20260906110004 | 88 | 87 | 0.0 | 4.3 | 0.00 | 0.00 | 0.00 | 42 | 1016.3 |
| 20260906104504 | 88 | 57 | 0.0 | 3.5 | 0.00 | 0.00 | 0.00 | 42 | 1016.2 |
| 20260906103003 | 88 | 109 | 0.0 | 8.7 | 0.00 | 0.00 | 0.00 | 42 | 1016.2 |
| 20260906101502 | 88 | 46 | 0.0 | 6.1 | 0.00 | 0.00 | 0.00 | 43 | 1016.3 |
| 20260906094601 | 87 | 55 | 0.0 | 5.2 | 0.00 | 0.00 | 0.00 | 43 | 1016.7 |
| 20260906093105 | 86 | 58 | 0.9 | 5.2 | 0.00 | 0.00 | 0.00 | 42 | 1016.7 |
| 20260906091557 | 86 | 69 | 0.0 | 4.3 | 0.00 | 0.00 | 0.00 | 46 | 1016.8 |
| 20260906090111 | 85 | 84 | 0.9 | 5.2 | 0.00 | 0.00 | 0.00 | 44 | 1016.8 |
| 20260906084556 | 85 | 74 | 0.9 | 8.7 | 0.00 | 0.00 | 0.00 | 47 | 1016.8 |
| 20260906083050 | 84 | 35 | 0.9 | 9.6 | 0.00 | 0.00 | 0.00 | 47 | 1016.7 |
| 20260906081552 | 84 | 67 | 2.6 | 7.8 | 0.00 | 0.00 | 0.00 | 47 | 1016.7 |
| 20260906080048 | 82 | 72 | 1.7 | 8.7 | 0.00 | 0.00 | 0.00 | 50 | 1016.7 |
| 20260906074546 | 82 | 68 | 1.7 | 9.6 | 0.00 | 0.00 | 0.00 | 49 | 1016.7 |
| 20260906073050 | 82 | 74 | 0.0 | 6.1 | 0.00 | 0.00 | 0.00 | 54 | 1016.5 |
| 20260906071537 | 81 | 63 | 0.0 | 6.1 | 0.00 | 0.00 | 0.00 | 55 | 1016.4 |
| 20260906070039 | 80 | 82 | 1.7 | 7.8 | 0.00 | 0.00 | 0.00 | 54 | 1016.4 |
| 20260906064532 | 79 | 74 | 0.9 | 5.2 | 0.00 | 0.00 | 0.00 | 56 | 1016.4 |
| 20260906063031 | 79 | 320 | 0.9 | 7.0 | 0.00 | 0.00 | 0.00 | 56 | 1016.3 |
| 20260906061529 | 79 | 82 | 0.0 | 5.2 | 0.00 | 0.00 | 0.00 | 56 | 1016.1 |
| 20260906060025 | 78 | 73 | 0.0 | 1.7 | 0.00 | 0.00 | 0.00 | 59 | 1015.9 |
| 20260906054524 | 76 | 74 | 0.0 | 0.9 | 0.00 | 0.00 | 0.00 | 62 | 1015.7 |
| 20260906053026 | 75 | 73 | 0.0 | 3.5 | 0.00 | 0.00 | 0.00 | 62 | 1015.4 |
| 20260906051521 | 75 | 92 | 0.0 | 2.6 | 0.00 | 0.00 | 0.00 | 63 | 1015.3 |
| 20260906050017 | 74 | 87 | 0.0 | 2.6 | 0.00 | 0.00 | 0.00 | 64 | 1015.1 |
| 20260906044516 | 74 | 81 | 0.0 | 3.5 | 0.00 | 0.00 | 0.00 | 64 | 1015.0 |
| 20260906043021 | 74 | 68 | 0.0 | 0.9 | 0.00 | 0.00 | 0.00 | 64 | 1015.0 |
| 20260906041514 | 74 | 86 | 0.0 | 0.9 | 0.00 | 0.00 | 0.00 | 64 | 1014.9 |
| 20260906040013 | 74 | 67 | 0.0 | 1.7 | 0.00 | 0.00 | 0.00 | 65 | 1014.9 |
| 20260906034516 | 75 | 85 | 0.0 | 0.9 | 0.00 | 0.00 | 0.00 | 65 | 1014.8 |
| 20260906033011 | 75 | 85 | 0.0 | 0.9 | 0.00 | 0.00 | 0.00 | 65 | 1014.7 |
| 20260906031511 | 75 | 75 | 0.0 | 0.0 | 0.00 | 0.00 | 0.00 | 65 | 1014.7 |
| 20260906030009 | 75 | 77 | 0.0 | 0.0 | 0.00 | 0.00 | 0.00 | 65 | 1014.6 |
| 20260906024509 | 75 | 77 | 0.0 | 0.0 | 0.00 | 0.00 | 0.00 | 64 | 1014.6 |
| 20260906023008 | 74 | 74 | 0.0 | 0.9 | 0.00 | 0.00 | 0.00 | 65 | 1014.6 |
| 20260906021507 | 74 | 86 | 0.0 | 0.0 | 0.00 | 0.00 | 0.00 | 66 | 1014.5 |
| 20260906020004 | 75 | 86 | 0.0 | 0.0 | 0.00 | 0.00 | 0.00 | 65 | 1014.4 |
| 20260906014505 | 75 | 86 | 0.0 | 0.0 | 0.00 | 0.00 | 0.00 | 65 | 1014.4 |
| 20260906013004 | 75 | 86 | 0.0 | 0.0 | 0.00 | 0.00 | 0.00 | 65 | 1014.2 |
| 20260906011502 | 75 | 86 | 0.0 | 0.0 | 0.00 | 0.00 | 0.00 | 65 | 1014.1 |
| 20260906010002 | 75 | 86 | 0.0 | 0.0 | 0.00 | 0.00 | 0.00 | 67 | 1014.0 |
| 20260906004501 | 75 | 86 | 0.0 | 0.0 | 0.00 | 0.00 | 0.00 | 68 | 1014.1 |
| 20260906003100 | 75 | 86 | 0.0 | 0.0 | 0.00 | 0.00 | 0.00 | 68 | 1014.1 |
| 20260906001559 | 75 | 86 | 0.0 | 0.0 | 0.00 | 0.00 | 0.00 | 68 | 1014.1 |
| 20260906000106 | 76 | 86 | 0.0 | 0.0 | 0.00 | 0.00 | 0.00 | 68 | 1014.1 |
| 20260905234601 | 76 | 86 | 0.0 | 0.0 | 0.00 | 0.00 | 0.00 | 68 | 1014.0 |
| 20260905233056 | 76 | 86 | 0.0 | 0.0 | 0.00 | 0.00 | 0.00 | 69 | 1013.9 |
| 20260905231554 | 77 | 86 | 0.0 | 0.0 | 0.00 | 0.00 | 0.00 | 68 | 1013.9 |
| 20260905230050 | 77 | 78 | 0.0 | 0.0 | 0.00 | 0.00 | 0.00 | 72 | 1013.8 |
| 20260905224602 | 77 | 78 | 0.0 | 0.0 | 0.00 | 0.00 | 0.00 | 72 | 1013.8 |
| 20260905223049 | 77 | 78 | 0.0 | 0.0 | 0.00 | 0.00 | 0.00 | 73 | 1013.7 |
| 20260905221546 | 77 | 81 | 0.0 | 0.9 | 0.00 | 0.00 | 0.00 | 75 | 1013.7 |
| 20260905220044 | 77 | 76 | 0.0 | 0.0 | 0.00 | 0.00 | 0.00 | 73 | 1013.6 |
| 20260905214545 | 77 | 73 | 0.0 | 0.9 | 0.00 | 0.00 | 0.00 | 68 | 1013.4 |
| 20260905213042 | 78 | 72 | 0.0 | 0.0 | 0.00 | 0.00 | 0.00 | 64 | 1013.2 |
| 20260905211542 | 78 | 80 | 0.0 | 1.7 | 0.00 | 0.00 | 0.00 | 61 | 1013.2 |
| 20260905210039 | 79 | 80 | 0.0 | 0.0 | 0.00 | 0.00 | 0.00 | 59 | 1013.0 |
| 20260905204538 | 79 | 61 | 0.0 | 0.0 | 0.00 | 0.00 | 0.00 | 59 | 1012.8 |